Temp
82 86 85 77 61 63 59 65 76 73 75 82 85 81 78 80 74 61 79 86 85 82 82 82 82 82 82 83 83 82 81 81 81 81 81 81 81 81 81 80 80 80 80 80 80 80 80 80 80
82 88 80 70 58 55 60 73 72 75 82 83 83 82 80 76 82 77 77 87 87 85 83 82 82 82 82 82 82 81 81 81 81 81 81 81 81 81 81 80 80 80 79 79 79 79 79 79 80
82 88 70 64 61 56 59 72 75 82 83 82 81 83 81 77 84 80 85 88 89 86 84 83 81 81 81 81 81 81 81 81 81 80 81 81 81 81 81 80 80 80 79 79 78 78 78 78 79
79 76 73 60 59 67 70 74 80 81 82 85 83 77 82 85 84 86 88 89 88 86 85 80 81 81 81 81 81 81 80 81 80 80 80 81 80 81 81 79 79 79 78 78 78 78 78 78 78
77 72 60 59 62 69 75 79 77 77 79 82 84 77 75 82 87 87 86 89 87 86 81 81 81 81 81 81 80 80 80 80 80 80 80 80 80 80 80 79 79 79 78 78 78 78 77 77 78
66 69 58 56 63 72 77 81 80 70 68 81 79 78 73 82 83 84 88 87 89 83 83 81 81 80 80 80 80 80 80 80 80 79 80 80 80 80 80 78 79 78 78 77 77 77 77 77 78
65 62 58 60 62 67 74 82 76 71 60 73 80 70 70 77 82 86 87 87 90 87 84 81 80 79 79 79 80 80 80 80 79 79 80 79 79 79 78 78 78 78 77 77 77 77 77 77 78
68 64 59 60 60 63 75 78 81 77 74 83 83 62 62 69 78 86 86 88 87 88 84 81 80 79 77 77 78 79 79 79 79 79 78 78 77 78 77 77 77 77 77 77 76 76 76 77 78
75 57 55 60 63 65 76 73 80 83 77 77 78 77 71 70 71 75 82 80 85 86 84 83 81 80 78 78 78 78 79 79 78 78 77 76 73 74 75 76 77 77 76 76 76 76 76 76 76
65 56 61 70 69 66 71 71 73 73 72 73 77 80 73 73 71 71 70 75 80 82 83 81 79 81 80 82 76 76 77 74 74 75 74 73 74 75 77 75 76 76 76 76 76 76 76 76 69
67 58 67 69 72 71 69 69 74 69 64 70 71 78 78 74 73 74 74 74 75 77 79 81 77 80 81 79 78 79 77 75 74 75 76 77 76 75 74 71 70 67 72 67 70 69 68 69 70
62 69 70 70 72 70 66 71 68 68 67 75 75 77 78 79 76 75 74 76 78 70 74 78 78 78 79 79 81 79 78 76 70 75 78 78 75 73 71 69 70 67 66 65 65 66 69 71 73
65 68 71 72 71 70 71 66 67 68 73 77 78 77 74 75 76 78 78 79 77 72 69 72 75 76 74 82 78 77 77 74 74 71 76 77 72 71 71 70 70 67 67 66 66 67 68 68 71
69 68 68 70 71 71 67 66 68 70 75 73 75 73 74 74 76 77 79 77 76 72 70 72 74 77 76 78 77 76 74 71 69 70 75 78 73 71 70 69 68 68 67 67 67 66 66 68 68
70 62 66 69 70 67 68 61 63 72 75 71 72 73 73 74 76 76 78 78 78 75 76 73 70 74 76 81 77 73 72 71 70 71 77 75 73 71 70 68 67 68 68 69 67 67 66 65 69
64 64 56 68 68 67 65 52 66 72 70 68 69 69 72 74 76 76 78 78 80 75 71 69 72 71 78 79 75 74 73 72 70 71 75 74 73 71 69 67 67 68 67 66 65 64 63 63 63
62 52 56 61 70 66 63 55 66 69 67 65 66 68 70 72 75 76 77 78 79 79 71 73 71 72 77 78 74 72 72 70 70 73 72 72 73 71 68 67 66 67 65 64 66 63 63 61 61
51 53 57 57 62 62 58 57 62 65 64 62 63 64 67 70 74 77 75 77 78 74 72 74 73 76 75 74 72 68 69 69 70 73 72 72 70 70 67 67 67 66 64 63 63 63 62 62 62
60 58 57 60 64 58 58 57 60 62 60 58 59 60 63 67 73 75 76 75 75 73 70 69 66 67 68 69 68 67 66 65 69 72 71 70 69 68 67 66 66 65 63 63 64 62 62 60 62
61 57 55 60 65 60 58 58 59 60 58 58 58 58 61 63 66 72 72 72 73 71 66 64 66 64 63 67 68 66 67 66 70 71 69 68 68 67 67 67 65 65 62 64 63 65 59 59 60
58 54 52 52 59 62 57 51 56 60 59 59 60 58 59 59 61 66 71 69 71 71 64 62 63 64 63 67 66 63 63 63 66 67 63 64 66 66 65 65 65 64 63 62 62 63 61 58 60
51 60 59 56 53 45 57 39 49 53 52 53 55 55 56 56 58 62 65 69 68 70 65 64 65 64 65 68 64 64 63 61 60 56 57 60 63 63 63 61 61 60 61 60 62 62 61 60 59
55 61 58 56 52 50 51 41 48 52 46 48 51 54 54 56 58 58 61 65 72 73 68 66 64 63 64 64 65 62 61 58 57 57 55 54 55 56 57 57 59 59 58 59 60 60 60 60 59
64 60 59 54 50 39 47 43 41 43 45 49 52 51 52 53 55 57 60 63 70 69 67 62 64 62 63 63 61 60 57 56 55 54 54 53 53 54 55 55 54 54 55 56 56 57 59 59 59
59 51 37 36 36 35 51 44 40 50 51 50 48 49 50 52 53 55 59 66 65 64 64 64 63 61 61 61 60 58 57 57 55 54 54 53 52 52 54 54 53 53 54 54 54 56 58 59 58
54 51 35 28 30 34 50 36 44 56 56 55 52 50 50 51 52 52 55 60 62 61 61 61 60 59 60 59 58 58 57 55 55 54 54 54 55 54 54 54 54 54 54 54 54 55 57 58 57
53 46 51 40 42 36 41 47 53 57 56 55 51 50 48 50 50 51 53 56 60 60 60 59 59 59 59 58 58 57 57 56 54 55 56 56 56 56 55 54 54 54 55 56 57 56 57 57 57
55 57 43 43 28 30 42 42 41 48 51 53 49 47 48 49 50 50 51 53 57 57 59 59 59 58 59 58 57 56 58 58 58 57 56 56 56 55 55 55 54 54 54 55 54 53 54 54 52
52 51 52 49 45 34 34 37 52 50 52 50 51 49 47 49 49 50 50 52 52 55 55 55 55 54 54 54 53 52 52 53 53 52 53 53 53 53 52 52 52 51 51 52 52 52 54 54 54
56 52 52 40 39 43 41 39 57 54 54 53 52 50 51 49 51 51 50 51 52 52 53 54 54 53 54 55 55 53 53 54 54 53 53 53 52 53 52 52 51 51 52 51 51 52 55 54 54
MSLP
1010.27 1009.56 1009.04 1009.02 1009.75 1008.56 1007.19 1005.68 1003.87 1003.20 1002.99 1002.81 1002.68 1002.90 1002.99 1003.35 1004.43 1006.55 1006.88 1006.84 1007.58 1008.59 1009.41 1010.01 1010.51 1010.94 1011.47 1011.81 1012.30 1012.73 1013.16 1013.58 1013.90 1014.15 1014.39 1014.74 1014.92 1015.11 1015.31 1015.39 1015.54 1015.76 1015.91 1015.97 1016.02 1016.07 1016.05 1016.05 1015.99
1010.22 1009.17 1009.01 1009.14 1009.01 1007.86 1006.38 1004.66 1003.52 1003.06 1002.86 1002.91 1003.07 1003.16 1003.29 1004.07 1004.78 1006.12 1006.78 1006.96 1007.61 1008.42 1009.30 1009.94 1010.59 1011.05 1011.51 1012.00 1012.38 1012.90 1013.32 1013.75 1014.11 1014.39 1014.57 1014.90 1015.16 1015.34 1015.57 1015.72 1015.88 1016.15 1016.36 1016.50 1016.51 1016.55 1016.47 1016.47 1016.37
1010.49 1009.35 1009.40 1008.80 1008.12 1007.42 1006.27 1004.30 1003.81 1003.17 1002.82 1002.98 1003.06 1003.01 1003.14 1004.51 1004.98 1005.84 1006.11 1006.84 1007.46 1008.24 1009.14 1009.92 1010.59 1011.18 1011.67 1012.16 1012.59 1013.11 1013.46 1013.87 1014.28 1014.66 1014.84 1015.09 1015.31 1015.51 1015.78 1015.95 1016.19 1016.46 1016.80 1016.96 1017.02 1017.08 1017.02 1016.88 1016.83
1009.82 1009.48 1009.53 1008.48 1007.56 1006.43 1005.50 1004.39 1003.36 1003.35 1003.41 1003.16 1003.38 1003.50 1004.06 1004.71 1004.88 1005.30 1006.19 1006.75 1007.32 1008.12 1008.87 1009.96 1010.71 1011.22 1011.82 1012.22 1012.70 1013.16 1013.67 1013.96 1014.42 1014.78 1015.03 1015.29 1015.50 1015.74 1015.99 1016.28 1016.52 1016.88 1017.12 1017.33 1017.48 1017.50 1017.49 1017.41 1017.24
1009.63 1009.35 1009.08 1008.17 1007.26 1006.41 1005.39 1004.34 1004.07 1004.02 1003.76 1003.50 1003.49 1003.62 1004.55 1005.09 1005.28 1005.58 1006.22 1006.74 1007.06 1007.94 1009.06 1010.06 1010.82 1011.39 1011.85 1012.40 1012.82 1013.26 1013.76 1014.12 1014.59 1014.92 1015.24 1015.49 1015.66 1015.92 1016.20 1016.62 1016.89 1017.19 1017.49 1017.73 1017.88 1017.97 1017.94 1017.85 1017.65
1009.73 1009.28 1008.86 1008.06 1006.99 1005.85 1004.88 1004.16 1003.71 1004.37 1004.79 1003.97 1004.02 1004.19 1005.31 1005.32 1005.45 1005.76 1006.19 1006.69 1007.01 1008.20 1009.24 1010.22 1010.93 1011.50 1011.98 1012.45 1012.96 1013.39 1013.85 1014.30 1014.67 1015.03 1015.39 1015.63 1015.81 1016.13 1016.39 1016.90 1017.16 1017.55 1017.89 1018.08 1018.23 1018.39 1018.33 1018.32 1018.01
1009.73 1009.54 1008.94 1008.19 1007.23 1006.05 1004.94 1004.05 1004.01 1005.11 1006.42 1004.48 1004.72 1005.38 1006.27 1005.75 1005.97 1005.84 1005.85 1006.54 1006.98 1007.96 1009.05 1010.19 1011.01 1011.73 1012.18 1012.63 1013.07 1013.56 1013.97 1014.42 1014.80 1015.11 1015.46 1015.73 1016.03 1016.37 1016.69 1017.14 1017.48 1017.90 1018.20 1018.50 1018.55 1018.74 1018.74 1018.71 1018.35
1009.74 1009.78 1009.28 1008.57 1007.62 1006.30 1005.28 1004.76 1004.44 1004.66 1005.09 1005.07 1005.25 1006.64 1007.80 1008.42 1007.11 1005.82 1005.76 1005.96 1006.62 1007.65 1008.76 1009.99 1010.92 1011.80 1012.36 1012.87 1013.19 1013.65 1014.05 1014.45 1014.90 1015.24 1015.49 1015.98 1016.36 1016.59 1016.84 1017.39 1017.78 1018.14 1018.49 1018.82 1018.94 1019.09 1019.11 1018.97 1018.73
1009.87 1009.84 1009.00 1008.26 1007.52 1006.82 1005.94 1005.65 1005.18 1005.08 1005.22 1005.76 1006.06 1006.36 1007.64 1008.26 1007.12 1006.60 1006.78 1006.15 1006.49 1007.36 1008.54 1009.45 1010.71 1011.50 1012.17 1012.75 1013.39 1013.85 1014.15 1014.55 1014.95 1015.35 1015.76 1016.10 1016.65 1016.83 1017.10 1017.60 1018.08 1018.46 1018.75 1019.10 1019.33 1019.35 1019.38 1019.28 1019.19
1010.05 1009.69 1008.87 1008.25 1007.96 1007.72 1007.22 1006.84 1006.41 1006.31 1006.05 1005.98 1005.90 1006.07 1006.88 1007.32 1007.44 1007.90 1008.33 1007.33 1006.92 1006.90 1007.90 1009.20 1010.38 1011.06 1011.65 1012.29 1013.24 1013.69 1014.19 1014.65 1015.04 1015.42 1015.84 1016.03 1016.27 1016.94 1017.28 1017.92 1018.35 1018.76 1019.02 1019.31 1019.50 1019.63 1019.45 1019.28 1019.28
1009.64 1009.61 1009.09 1008.73 1008.50 1008.46 1008.24 1007.95 1007.51 1007.15 1006.91 1006.78 1006.66 1006.73 1006.98 1006.58 1007.07 1007.61 1007.65 1007.27 1007.88 1007.94 1008.14 1009.06 1009.82 1010.67 1011.09 1011.79 1012.72 1013.02 1013.74 1014.44 1014.76 1015.25 1015.66 1015.84 1016.30 1016.85 1017.53 1018.16 1018.69 1019.07 1019.34 1019.58 1019.68 1019.83 1019.73 1019.65 1019.43
1009.65 1009.36 1008.93 1008.93 1008.80 1008.81 1008.76 1008.57 1008.19 1007.90 1007.64 1007.18 1006.94 1006.78 1006.92 1007.00 1006.96 1007.34 1007.29 1007.67 1008.19 1009.09 1009.08 1009.46 1009.49 1010.61 1010.93 1011.47 1011.86 1012.31 1013.10 1013.93 1014.67 1014.81 1015.25 1015.51 1016.06 1016.76 1017.41 1017.99 1018.46 1018.93 1019.25 1019.55 1019.62 1019.79 1019.57 1019.41 1019.50
1009.10 1008.99 1008.81 1008.73 1008.67 1008.67 1008.63 1008.50 1008.33 1007.85 1007.44 1007.16 1007.06 1006.84 1006.71 1006.97 1006.82 1006.76 1007.14 1007.32 1007.67 1009.32 1008.70 1009.82 1009.34 1010.10 1011.11 1011.45 1011.43 1011.97 1012.63 1013.68 1014.34 1014.77 1014.88 1015.17 1015.94 1016.61 1017.00 1017.58 1018.03 1018.58 1018.85 1019.34 1019.62 1019.66 1019.69 1019.73 1019.74
1009.09 1009.08 1008.67 1008.37 1008.14 1008.23 1008.35 1008.31 1008.12 1007.51 1007.11 1006.97 1007.15 1007.09 1006.89 1006.82 1006.82 1006.60 1006.78 1007.05 1007.48 1008.53 1009.45 1010.00 1010.43 1010.21 1010.10 1011.11 1011.49 1012.36 1012.89 1013.55 1014.33 1014.95 1014.84 1014.96 1015.72 1016.31 1016.76 1017.36 1017.90 1018.40 1018.83 1019.17 1019.55 1019.80 1020.04 1020.04 1020.32
1009.06 1008.94 1008.10 1007.98 1007.90 1008.29 1008.59 1008.38 1007.54 1006.88 1006.94 1006.96 1007.21 1006.98 1006.66 1006.62 1006.42 1006.53 1006.38 1006.57 1006.97 1007.61 1008.58 1009.51 1010.50 1010.53 1010.74 1010.55 1011.30 1012.25 1013.17 1013.62 1014.32 1014.71 1014.52 1015.05 1015.63 1016.18 1016.73 1017.37 1017.92 1018.36 1018.71 1019.02 1019.39 1019.78 1020.27 1020.62 1020.77
1008.76 1008.40 1007.93 1007.52 1007.76 1008.20 1008.58 1008.40 1007.66 1007.45 1007.46 1007.63 1007.49 1007.31 1006.87 1006.50 1006.23 1006.35 1006.25 1006.09 1006.36 1007.34 1008.53 1009.59 1009.97 1010.88 1010.76 1010.47 1011.58 1012.26 1013.11 1013.92 1014.38 1014.59 1014.70 1015.16 1015.69 1016.15 1016.83 1017.51 1017.99 1018.29 1018.65 1019.06 1019.59 1020.14 1020.67 1021.11 1021.47
1008.67 1008.60 1008.23 1007.67 1007.49 1008.12 1008.46 1008.44 1008.17 1008.20 1008.49 1008.67 1008.53 1008.12 1007.56 1006.78 1006.18 1005.85 1005.99 1006.05 1006.04 1006.89 1008.16 1009.29 1010.31 1010.44 1010.48 1010.76 1011.74 1012.38 1012.86 1013.91 1014.54 1014.69 1014.81 1015.37 1015.81 1016.17 1016.84 1017.54 1018.05 1018.17 1018.76 1019.20 1019.76 1020.38 1020.76 1021.33 1021.69
1009.43 1009.13 1008.53 1007.83 1007.94 1008.43 1008.61 1008.84 1008.94 1009.16 1009.39 1009.57 1009.51 1009.14 1008.47 1007.45 1006.54 1005.77 1005.65 1005.87 1005.95 1006.49 1007.47 1008.50 1009.12 1009.11 1010.18 1010.84 1012.01 1012.88 1013.47 1013.94 1014.28 1014.46 1014.67 1015.48 1016.16 1016.50 1017.00 1017.45 1018.03 1018.32 1019.05 1019.52 1020.02 1020.44 1020.79 1021.18 1021.62
1009.49 1009.06 1008.43 1008.06 1008.22 1008.77 1008.53 1008.90 1009.56 1010.00 1010.34 1010.66 1010.61 1010.44 1009.53 1008.29 1007.18 1006.33 1005.82 1006.10 1006.41 1006.82 1007.75 1008.51 1010.01 1010.63 1011.18 1011.15 1012.01 1012.92 1013.79 1014.16 1014.29 1014.31 1014.66 1015.38 1016.30 1016.92 1017.33 1017.59 1017.98 1018.34 1019.27 1019.63 1020.18 1020.63 1020.97 1021.32 1021.51
1009.22 1008.87 1008.68 1008.63 1008.42 1008.55 1008.75 1009.05 1009.96 1010.74 1011.49 1011.86 1011.69 1011.23 1010.58 1009.47 1008.24 1006.99 1006.43 1006.36 1006.71 1007.19 1008.01 1009.20 1010.06 1010.52 1009.56 1012.22 1011.94 1012.63 1013.29 1013.90 1014.12 1014.07 1014.70 1015.43 1016.20 1017.09 1017.59 1017.87 1018.40 1018.42 1019.27 1019.63 1020.15 1020.51 1021.17 1021.49 1021.70
1009.42 1009.57 1009.60 1009.46 1008.80 1008.49 1009.02 1009.54 1010.30 1011.35 1012.03 1012.22 1012.10 1012.11 1011.52 1010.82 1009.69 1008.37 1007.36 1006.77 1006.87 1007.10 1008.33 1009.48 1010.03 1010.74 1011.40 1012.70 1012.29 1013.00 1013.45 1013.69 1014.35 1014.81 1015.22 1015.83 1016.32 1017.10 1017.78 1018.12 1018.49 1018.78 1019.13 1019.55 1020.23 1020.58 1021.04 1021.86 1022.02
1009.65 1009.60 1009.70 1009.53 1009.34 1009.12 1009.23 1010.23 1011.30 1011.88 1012.28 1012.40 1012.78 1012.64 1012.24 1011.44 1010.66 1009.65 1008.43 1007.28 1007.14 1007.24 1008.25 1009.37 1010.37 1010.82 1011.54 1012.44 1013.00 1013.34 1013.64 1014.37 1015.25 1015.75 1016.16 1016.73 1016.79 1017.57 1018.16 1018.62 1019.00 1019.37 1019.63 1020.11 1020.22 1020.66 1021.34 1021.76 1022.38
1009.80 1009.67 1009.52 1009.87 1010.04 1009.82 1009.94 1010.57 1011.30 1011.61 1012.59 1012.94 1013.01 1012.92 1012.76 1012.32 1011.73 1010.58 1009.50 1008.29 1007.13 1007.23 1007.84 1009.46 1010.42 1011.38 1012.04 1013.67 1012.31 1012.86 1014.07 1014.54 1016.01 1016.68 1017.34 1017.53 1018.20 1018.52 1019.17 1019.45 1019.11 1019.58 1019.75 1020.59 1020.47 1020.75 1021.44 1021.99 1022.55
1009.72 1009.25 1008.80 1009.95 1010.43 1010.72 1010.77 1011.50 1011.78 1012.61 1013.31 1013.36 1013.31 1013.34 1013.12 1012.71 1012.07 1011.19 1010.04 1008.34 1007.34 1007.85 1008.70 1010.06 1010.99 1011.36 1011.99 1013.37 1012.72 1012.76 1014.64 1015.25 1016.30 1017.34 1017.88 1018.50 1019.07 1019.59 1019.58 1020.07 1020.34 1020.22 1020.47 1020.97 1021.12 1021.39 1021.86 1022.34 1022.56
1009.91 1009.98 1010.54 1011.02 1011.03 1011.14 1011.10 1011.54 1012.48 1012.64 1013.08 1013.80 1013.82 1013.78 1013.57 1013.10 1012.31 1011.37 1009.38 1008.27 1008.59 1009.16 1009.70 1010.90 1011.52 1012.37 1012.47 1012.27 1013.56 1014.22 1015.79 1015.44 1015.40 1016.49 1016.97 1018.22 1019.14 1020.19 1021.00 1020.58 1020.85 1021.07 1021.01 1021.59 1022.30 1021.99 1022.27 1022.73 1022.72
1010.55 1010.96 1012.32 1013.04 1012.83 1012.32 1011.58 1011.72 1012.05 1012.16 1012.85 1013.57 1014.06 1014.16 1013.91 1013.34 1012.83 1012.06 1010.86 1010.45 1010.30 1010.67 1010.88 1011.84 1012.48 1013.11 1013.65 1013.99 1014.48 1014.19 1016.14 1016.30 1016.89 1016.54 1017.40 1018.13 1018.78 1019.46 1020.22 1020.69 1021.16 1021.33 1021.57 1022.33 1022.74 1022.70 1022.71 1022.73 1022.98
1010.67 1011.39 1012.64 1013.25 1013.18 1012.99 1011.56 1011.83 1011.92 1011.86 1012.56 1013.31 1014.22 1014.38 1014.34 1014.26 1013.87 1013.09 1012.31 1011.86 1011.51 1011.69 1012.27 1012.65 1013.32 1013.96 1014.32 1014.67 1015.40 1015.58 1016.82 1016.62 1017.09 1017.25 1017.81 1018.52 1018.77 1019.23 1019.74 1020.23 1020.79 1021.26 1021.68 1022.02 1022.20 1022.50 1022.66 1022.74 1022.76
1010.86 1011.48 1012.33 1012.92 1013.36 1012.52 1011.34 1011.56 1012.09 1012.24 1012.87 1013.57 1014.42 1015.01 1015.17 1015.12 1014.76 1014.19 1013.80 1013.30 1012.78 1012.84 1013.17 1013.64 1013.93 1014.51 1014.78 1015.15 1015.58 1015.92 1016.21 1016.96 1017.43 1017.90 1017.83 1018.38 1018.90 1019.13 1019.79 1020.28 1020.70 1021.12 1021.46 1021.91 1022.18 1022.61 1022.70 1022.73 1022.96
1010.98 1011.00 1011.44 1012.09 1012.65 1012.75 1012.09 1012.27 1011.96 1012.62 1013.20 1014.08 1014.88 1015.56 1016.02 1015.84 1015.74 1015.36 1014.94 1014.57 1014.42 1014.17 1014.30 1014.72 1015.16 1015.33 1015.74 1016.16 1016.69 1017.06 1017.87 1017.87 1018.13 1018.43 1018.14 1018.46 1019.03 1019.44 1019.96 1020.54 1021.00 1021.46 1021.96 1022.19 1022.52 1022.75 1022.81 1022.91 1023.11
1010.97 1011.15 1011.38 1011.98 1012.50 1012.47 1011.81 1012.16 1011.97 1012.55 1013.27 1014.07 1015.16 1015.95 1016.11 1016.30 1016.06 1016.01 1015.83 1015.76 1015.60 1015.57 1015.54 1015.86 1016.21 1016.53 1016.98 1017.13 1017.64 1017.98 1018.45 1018.76 1018.95 1018.64 1018.56 1018.78 1019.54 1020.06 1020.44 1020.92 1021.33 1021.74 1022.08 1022.33 1022.64 1022.85 1022.87 1023.03 1023.09
Wind_Speed
13 10 7 3 2 5 10 12 9 3 2 7 7 2 6 9 6 3 4 6 18 16 15 16 18 19 18 17 15 16 16 16 15 14 14 14 13 12 14 15 18 18 17 16 17 17 17 18 16
10 11 3 3 5 8 8 14 11 4 7 6 2 4 8 7 9 9 7 12 16 17 15 15 18 18 18 16 16 17 16 16 15 14 13 12 13 12 13 16 18 18 17 16 16 16 17 17 16
10 10 2 5 7 11 11 17 11 5 4 3 5 2 4 6 9 10 12 16 16 17 15 16 18 17 17 17 16 16 16 16 15 13 12 11 12 12 14 16 17 16 16 16 16 16 16 15 16
5 2 4 6 15 13 16 16 3 8 4 5 6 4 6 6 5 8 10 16 14 17 16 20 17 17 16 17 17 17 16 16 15 13 11 10 9 12 14 16 18 17 16 16 15 15 15 14 15
3 4 6 9 14 15 16 17 9 7 6 10 6 7 8 5 7 11 10 14 13 14 17 17 19 18 17 17 17 17 16 16 14 12 10 10 8 13 14 15 18 16 16 15 15 15 15 13 13
3 3 7 10 13 16 16 14 9 4 14 13 7 10 7 7 8 10 11 12 12 17 16 15 17 17 17 17 17 17 17 15 14 12 11 10 10 14 15 15 18 16 15 15 15 14 14 12 12
6 5 10 12 13 15 16 14 4 9 10 15 9 4 5 5 6 9 12 11 17 18 17 13 12 12 15 16 16 17 17 15 13 12 11 10 14 13 15 16 18 16 15 14 15 14 13 11 10
4 4 11 11 11 13 8 12 9 8 7 9 1 2 2 12 7 8 9 10 8 17 18 16 13 11 10 9 16 16 16 14 13 11 11 13 14 15 17 17 17 16 15 14 14 13 11 9 8
2 4 5 11 9 10 12 11 9 10 5 4 10 3 11 12 8 9 5 6 9 10 16 14 14 12 12 11 11 13 15 14 12 10 16 14 6 7 9 15 16 15 15 13 13 13 10 7 3
3 4 8 9 8 10 13 13 13 13 9 7 8 2 9 6 4 3 5 5 7 12 16 15 11 13 14 12 12 9 8 5 6 7 8 5 7 8 11 14 16 15 14 12 12 12 10 6 3
3 6 11 11 9 9 11 13 14 12 10 9 12 12 8 13 11 8 7 5 7 5 13 16 13 11 13 10 9 7 6 5 5 9 8 7 8 9 7 6 5 4 10 3 5 6 2 3 1
4 12 7 7 9 10 11 13 12 11 10 10 10 10 10 5 11 9 7 6 8 7 4 12 14 11 10 11 9 7 8 6 4 7 9 8 4 7 7 4 7 5 4 6 4 3 4 3 5
10 7 11 11 9 7 10 10 12 12 10 10 10 11 10 9 10 8 10 10 8 15 8 7 5 6 6 6 6 6 7 8 8 4 4 5 6 5 6 5 5 5 5 4 4 3 3 2 6
8 10 12 11 9 6 8 9 8 11 9 1 6 10 10 10 11 8 9 8 7 8 10 7 7 10 7 6 6 7 7 7 5 4 5 7 5 5 5 5 5 5 4 5 4 3 4 5 6
8 11 12 6 3 3 6 10 5 13 8 5 7 9 8 9 7 9 8 10 10 7 10 9 1 8 7 9 7 8 6 7 5 5 5 7 6 6 7 5 5 5 5 7 4 5 4 5 4
10 11 5 6 4 5 4 9 10 11 7 9 10 9 9 8 8 8 10 7 14 9 9 8 10 12 8 7 9 8 8 5 4 3 4 7 7 7 6 5 5 5 4 5 5 4 4 4 4
2 10 11 7 5 7 7 8 8 13 12 10 10 11 13 10 11 8 6 9 10 14 17 14 21 24 12 9 9 8 10 5 4 4 4 6 6 7 6 5 5 6 4 5 5 3 4 3 3
10 11 10 11 5 7 7 9 8 7 5 5 10 13 15 12 14 7 8 8 6 9 12 13 9 9 6 10 9 5 6 5 4 3 5 7 4 6 6 6 6 6 5 4 3 4 3 4 4
11 13 12 10 5 4 5 4 4 13 15 14 14 16 18 16 17 8 6 6 7 7 7 9 6 4 5 8 9 8 7 4 5 4 7 8 5 5 6 4 6 6 5 5 5 3 4 2 3
10 13 9 8 7 5 6 9 14 11 11 9 11 13 16 18 18 15 5 5 7 8 7 9 11 7 9 7 5 4 7 5 4 5 6 8 8 6 5 5 5 7 5 6 4 5 2 2 3
11 9 11 12 11 11 6 7 5 7 10 10 10 10 13 15 18 17 17 4 4 7 9 9 8 9 15 16 6 5 6 5 3 5 5 5 8 7 7 6 5 5 4 5 4 5 6 3 4
9 11 11 11 6 4 5 2 4 5 8 14 12 9 11 14 15 16 19 10 3 3 13 10 11 12 6 10 8 11 6 7 3 4 4 5 6 7 6 6 7 7 6 8 7 6 5 4 4
7 11 13 6 7 5 7 3 6 12 13 15 12 11 11 10 12 15 18 17 6 4 9 12 12 5 9 17 12 8 9 8 5 5 6 8 7 8 7 6 6 7 7 6 8 7 7 4 3
9 14 4 4 3 2 6 3 4 6 4 10 12 11 12 11 12 13 15 19 7 11 11 10 15 8 16 11 15 10 10 10 7 5 4 4 5 5 7 7 5 5 7 7 7 6 7 3 2
9 10 4 4 3 1 6 3 1 5 1 4 12 12 11 12 11 12 13 4 13 9 8 12 13 12 11 16 15 13 3 8 12 9 7 8 6 3 2 7 6 5 8 8 5 5 5 3 0
8 5 3 2 3 5 6 2 2 1 6 8 9 10 12 14 14 14 14 11 10 12 11 14 12 11 10 11 10 10 5 5 4 7 6 5 5 8 11 9 6 7 7 5 1 0 2 2 2
5 5 2 1 5 3 4 4 4 9 8 10 11 13 13 14 14 14 15 14 10 11 10 12 13 11 12 12 10 11 8 9 6 7 6 6 6 6 8 10 10 8 8 7 6 3 4 4 1
2 1 1 2 3 5 2 6 4 8 9 11 13 12 12 13 13 13 12 14 13 13 12 14 14 13 12 13 10 10 10 8 7 5 7 8 5 7 8 7 7 6 6 5 5 3 2 3 1
2 1 2 2 1 2 4 3 6 7 7 9 10 12 12 11 11 10 11 13 13 14 14 14 13 13 13 13 11 12 9 9 8 7 8 8 8 8 8 7 7 7 6 5 4 2 2 2 3
3 3 2 1 4 4 4 3 7 8 6 10 10 9 5 8 8 9 10 11 12 12 12 12 11 12 10 10 12 11 9 8 7 8 10 9 9 8 8 6 6 5 4 3 3 3 3 4 5
Wind_Direction
292 251 237 322 258 226 263 267 270 72 281 31 357 291 340 344 38 97 160 197 126 137 148 153 151 148 148 145 139 130 128 127 121 119 116 117 110 103 92 95 91 85 79 77 74 70 71 69 63
299 282 316 267 243 258 259 243 236 194 250 68 255 278 260 91 85 121 153 125 140 141 144 149 151 151 150 147 139 137 135 130 125 122 122 120 118 115 104 102 96 90 84 80 77 74 71 69 63
273 268 262 222 230 251 270 286 7 205 50 100 293 186 319 72 67 145 127 137 152 139 154 146 151 152 150 147 143 143 138 133 127 126 124 129 128 126 116 111 102 95 90 84 80 77 74 71 64
247 217 263 276 271 261 239 258 226 312 284 196 250 304 76 34 116 105 149 140 152 144 140 140 151 149 150 152 148 143 143 135 129 129 130 135 137 134 120 113 104 100 94 87 80 77 73 66 69
278 267 240 258 255 255 275 284 284 221 250 270 239 238 104 94 84 119 158 153 158 129 130 139 146 150 151 153 149 145 146 134 132 130 133 139 137 123 115 118 108 103 93 89 83 79 76 69 64
250 230 258 255 261 259 259 261 233 47 315 288 325 312 106 107 133 138 162 159 135 124 135 141 145 149 152 152 149 148 140 136 134 131 138 140 129 129 122 118 110 100 96 91 87 81 79 74 65
259 276 265 278 289 298 302 316 4 182 163 287 2 355 30 97 119 152 158 168 149 142 137 140 142 149 152 152 153 148 141 138 135 137 140 128 130 125 120 114 106 102 97 93 92 88 82 79 78
324 246 271 279 287 294 302 326 325 352 342 349 285 57 6 314 308 157 172 162 144 142 139 145 144 149 146 147 151 147 141 138 140 144 129 120 126 122 114 112 108 102 99 98 97 95 92 93 83
278 270 259 267 298 338 352 334 317 321 340 318 303 307 163 191 300 350 191 149 158 151 130 137 148 157 152 143 148 149 144 139 145 146 129 131 133 123 115 114 107 106 104 105 106 108 112 106 68
257 270 277 350 354 333 327 324 322 332 314 288 292 214 139 120 79 226 287 262 175 161 145 143 155 160 154 154 151 151 139 147 158 143 159 158 140 128 111 113 111 110 109 114 123 133 144 150 183
298 265 298 339 330 335 320 310 309 309 298 296 297 314 148 156 172 208 238 181 328 90 143 148 141 181 162 148 171 159 148 162 166 156 171 162 117 120 115 119 114 110 121 123 147 160 234 250 186
280 288 274 297 313 311 300 303 302 298 289 295 301 303 309 282 170 194 210 226 182 54 102 157 157 183 193 153 171 155 155 155 148 189 177 136 136 126 136 154 147 163 150 174 180 182 136 151 112
265 283 319 303 291 274 270 273 277 271 274 272 264 275 286 290 294 197 175 222 210 156 198 171 163 159 183 207 143 148 146 140 171 197 195 129 139 147 149 161 149 142 136 144 101 137 187 103 82
321 300 283 264 271 270 277 292 281 267 263 221 284 267 264 255 255 265 184 211 179 212 173 179 226 190 152 176 155 118 121 141 139 190 202 130 144 136 134 127 118 121 134 128 152 140 85 63 70
284 279 267 232 68 346 23 291 273 237 239 231 256 273 243 245 261 259 238 188 194 209 147 160 71 298 194 157 138 119 125 128 140 184 164 134 140 139 129 127 121 142 144 150 139 105 82 76 71
248 250 314 29 92 163 176 298 342 337 355 332 327 301 301 280 207 232 273 245 192 169 155 155 138 250 235 155 125 124 129 135 149 182 141 133 146 135 127 124 135 160 140 130 109 108 97 112 112
117 345 334 314 120 13 343 319 349 26 9 345 322 316 312 301 282 216 247 281 199 187 160 180 181 212 202 147 135 135 140 139 167 171 130 137 142 131 128 131 147 134 121 109 116 104 124 116 105
325 322 305 302 59 12 289 341 45 40 352 356 4 340 328 292 286 254 204 251 267 160 146 170 194 187 175 130 129 113 140 144 159 148 129 127 136 137 133 134 140 118 110 111 115 131 128 137 151
289 299 293 359 84 341 309 72 29 46 31 12 354 2 336 322 322 328 95 347 331 112 131 163 139 331 297 127 140 140 150 162 161 147 136 131 138 140 135 133 129 124 132 144 148 139 142 87 135
327 310 342 320 321 232 313 280 91 29 50 19 346 349 331 331 324 314 294 196 270 150 152 139 173 130 289 315 137 129 149 167 151 134 131 128 130 113 109 129 133 129 138 140 152 133 97 74 83
328 14 338 307 304 272 305 92 56 40 46 11 3 338 325 320 328 324 320 209 297 177 141 157 189 162 198 244 121 95 108 73 83 97 89 105 118 110 112 106 118 110 139 142 119 111 98 113 28
306 14 324 313 309 334 32 285 173 42 18 7 342 346 328 326 323 317 311 300 314 220 145 160 173 195 192 231 155 156 125 121 57 68 67 59 93 96 108 105 92 92 86 81 86 70 77 95 114
281 310 287 277 299 312 22 335 85 28 358 340 329 352 334 320 309 303 305 303 188 289 146 145 155 130 99 325 148 134 120 98 87 75 69 60 53 72 48 24 105 113 99 100 93 75 75 66 75
303 304 248 235 224 254 26 83 19 14 340 326 339 350 339 333 319 309 296 284 115 90 93 85 133 110 128 123 13 85 114 115 117 123 103 78 61 50 68 57 33 71 91 85 65 71 51 31 33
356 351 4 1 12 43 17 79 86 349 348 9 354 357 349 340 339 331 290 63 72 74 79 102 113 130 127 134 144 123 226 147 140 154 145 146 145 138 64 85 77 66 73 60 38 53 44 297 12
298 359 104 268 340 296 303 349 23 24 158 89 33 17 5 5 360 360 19 54 75 81 80 88 101 111 119 109 118 100 99 67 42 83 111 132 140 155 161 163 153 138 122 122 132 272 281 287 260
338 56 90 344 208 275 203 109 219 66 45 55 37 20 16 14 5 12 24 30 58 72 78 87 98 98 95 92 98 105 127 105 104 112 122 127 121 134 154 156 160 153 154 169 169 178 221 210 255
323 251 205 177 6 305 27 82 6 32 27 36 23 25 20 13 13 25 30 34 47 56 69 81 76 81 85 81 69 65 71 82 101 96 111 103 105 125 140 135 126 121 111 99 101 88 47 66 18
186 182 272 165 162 305 318 72 32 57 46 59 39 32 27 16 20 28 40 44 43 59 60 68 68 70 72 77 73 71 68 69 74 81 86 87 91 93 94 99 104 100 101 96 101 137 157 173 150
339 345 303 46 340 282 225 102 87 89 61 98 78 61 43 37 25 48 51 56 58 56 57 62 66 68 73 89 93 87 82 81 91 95 86 83 88 89 99 98 93 98 105 130 158 189 183 198 174